Regional Weather Roundup
Issued by NWS

Home | Current Version | Previous Version | Text Only | Print | Product List | Glossary Off
Versions: 1 2 3 4 5 6 7 8 9 10 11 12 13 14 15 16 17 18 19 20 21 22 23 24 25 26 27 28 29 30 31 32 33 34 35 36 37 38 39 40 41 42 43 44 45 46 47 48 49 50

000
ASUS45 KSLC 252110
RWRUT

UTAH REGIONAL WEATHER ROUNDUP
NATIONAL WEATHER SERVICE SALT LAKE CITY UT
300 PM MDT FRI JUL 25 2014

UTZ001>011-023>025-252200-

NORTHERN UTAH

CITY           SKY/WX    TMP DP  RH WIND       PRES   REMARKS
HILL AFB       SUNNY     87  42  20 W12       30.07F
LOGAN          MOSUNNY   87  38  17 VRB5      30.05F
OGDEN          SUNNY     88  39  17 VRB3      30.04F
PROVO AIRPORT  MOSUNNY   93  43  17 E8        30.02F
SALT LAKE CITY PTSUNNY   90  44  20 NW13      30.00F
VERNAL         MOSUNNY   92  44  19 S10       30.04F
WENDOVER       SUNNY     88  36  15 E8        30.02F
HEBER CITY     SUNNY     91  34  13 SW13G23   30.09F
WEST JORDAN    SUNNY     90  54  29 NW18      30.04F

$$

UTZ012>022-026-027-252200-

SOUTHERN UTAH

CITY           SKY/WX    TMP DP  RH WIND       PRES   REMARKS
BRYCE CANYON   CLOUDY    79  45  29 SW12      30.33F
CEDAR CITY     SUNNY     93  41  16 SW23G31   30.14F
MILFORD        MOSUNNY   98  42  14 SW21G38   30.04F HX  94
MOAB/CYNLANDS  SUNNY     93  43  17 SE12      30.04F
PRICE          PTSUNNY   92  39  15 VRB5      30.12F
ST GEORGE      PTCLDY    99  50  19 W15G21    29.95S HX  95

$$

REGIONAL REPORTS     COLORADO/ARIZONA

CITY           SKY/WX    TMP DP  RH WIND       PRES   REMARKS
CRAIG, CO      PTSUNNY   80  48  32 SW16G29   30.15F
GRAND JUNCTION TSTM      73  59  61 S8        30.13S
RIFLE          PTSUNNY   87  45  23 W28G35    30.12F
MONTROSE       CLOUDY    85  52  32 NW9       30.20F
CORTEZ         SUNNY     91  44  19 NW14G23   30.19F
PAGE, AZ       PTSUNNY   92  48  22 N7        30.10R
GRAND CANYON   MOSUNNY   85  46  25 W13G20    30.29F
KINGMAN        MOSUNNY   99  52  20 SW21G28   30.03F HX  96
FLAGSTAFF      MOSUNNY   85  32  15 S13G21    30.32F

$$

REGIONAL REPORTS    NEVADA/IDAHO/WYOMING

CITY           SKY/WX    TMP DP  RH WIND       PRES   REMARKS
LAS VEGAS, NV  CLOUDY   100  48  17 S22G31    29.86S HX  96
ELY            SUNNY     93  16   6 SW22G38   30.13F
ELKO           SUNNY     90  22   8 SW10      30.06F
POCATELLO, ID  SUNNY     81  29  15 SW7G18    30.10F
BURLEY         SUNNY     78  34  20 W8        30.08F
EVANSTON, WY   SUNNY     86  28  12 W25G39    30.21F
ROCK SPRINGS   MOSUNNY   91  27  10 W28G38    30.14F

$$


USA.gov is the U.S. government's official web portal to all federal, state and local government web resources and services.